Terminal Aerodrome Forecast
Issued by NWS Wakefield, VA

Home | Current Version | Previous Version | Text Only | Print | Product List | Glossary On
Versions: 1 2 3 4 5 6 7 8 9 10 11 12 13 14
000
FTUS41 KAKQ 270532
TAFORF
TAF
KORF 270532Z 2706/2806 21013KT P6SM SCT025 BKN250
     FM271000 21012KT P6SM OVC025
     FM271400 21012G20KT P6SM BKN040
     FM272300 19010KT P6SM BKN040=

USA.gov is the U.S. government's official web portal to all federal, state and local government web resources and services.